Park Rapids, MN

11:16 AM CDT on September 29, 2016 (GMT -0500)
Park Rapids Municipal

Weather History for KPKD - May, 2014

Change the Weather History Date:

Saturday, May 31, 2014

  Actual Average Record
Temperature  
Mean Temperature 70 °F -  
Max Temperature 75 °F 71 °F 89 °F (1986)
Min Temperature 64 °F 46 °F 29 °F (1964)
Cooling Degree Days 4    
Growing Degree Days 20 (Base 50)    
Moisture  
Dew Point 64 °F    
Average Humidity 91    
Maximum Humidity 100    
Minimum Humidity 71    
Precipitation  
Precipitation 1.98 in - - ()
Sea Level Pressure  
Sea Level Pressure 29.95 in    
Wind  
Wind Speed 8 mph (SE)    
Max Wind Speed 16 mph    
Max Gust Speed -    
Visibility 8 miles    
Events Rain    
Averages and records for this station are not official NWS values.
T = Trace of Precipitation, MM = Missing Value Source: NWS Daily Summary

Daily Weather History Graph

Daily Weather History Graph

Search for Another Location

Airport or City:

Trip Planner

Search our weather history database for the weather conditions in past years. The results will help you decide how hot, cold, wet, or windy it might be!

Date:

Astronomy

May. 31, 2014 Rise Set
Actual Time 5:30 AM CDT 9:06 PM CDT
Civil Twilight 4:51 AM CDT 9:44 PM CDT
Nautical Twilight 4:00 AM CDT 10:36 PM CDT
Astronomical Twilight 2:51 AM CDT 11:46 PM CDT
Moon 8:13 AM CDT (5/31) 11:18 PM CDT (5/31)
Length of Visible Light 16h 52m
Length of Day
15h 36m
Waxing Crescent, 8% of the Moon is Illuminated
May 31
Waxing Crescent
Jun 5
First Quarter
Jun 12
Full
Jun 19
Last Quarter
Jun 27
New

Hourly Weather History & Observations

Time (CDT) Temp. Dew Point Humidity Pressure Visibility Wind Dir Wind Speed Gust Speed Precip Events Conditions
12:13 AM 64.9 °F 64.9 °F 100% 30.05 in 0.8 mi East 8.1 mph - 0.69 in Rain Heavy Rain
12:20 AM 64.9 °F 64.9 °F 100% 30.04 in 2.5 mi East 4.6 mph - 0.70 in Rain Light Rain
12:22 AM 64.9 °F 64.9 °F 100% 30.05 in 4.0 mi ESE 6.9 mph - 0.70 in Rain Light Rain
12:53 AM 66.0 °F 64.9 °F 96% 30.04 in 9.0 mi SE 12.7 mph - 0.72 in Rain Light Rain
1:53 AM 66.0 °F 64.9 °F 96% 30.00 in 10.0 mi SE 10.4 mph - 0.02 in Rain Light Rain
2:53 AM 66.0 °F 64.9 °F 96% 30.00 in 10.0 mi SE 4.6 mph - 0.01 in Rain Light Rain
3:53 AM 66.2 °F 64.4 °F 94% 30.00 in 10.0 mi SE 6.9 mph - N/A   Scattered Clouds
4:48 AM 66.2 °F 64.4 °F 94% 30.02 in 10.0 mi SE 10.4 mph - N/A   Mostly Cloudy
4:49 AM 66.0 °F 64.9 °F 96% 30.00 in 10.0 mi SE 10.4 mph - N/A   Mostly Cloudy
5:33 AM 64.9 °F 64.0 °F 97% 30.02 in 10.0 mi Calm Calm - N/A   Mostly Cloudy
5:53 AM 64.9 °F 64.0 °F 97% 30.01 in 10.0 mi SE 3.5 mph - N/A   Overcast
6:30 AM 66.0 °F 64.0 °F 93% 30.03 in 10.0 mi SSE 6.9 mph - N/A   Overcast
6:38 AM 66.0 °F 64.9 °F 96% 30.03 in 10.0 mi SSE 6.9 mph - N/A   Overcast
6:53 AM 66.0 °F 64.0 °F 93% 30.00 in 10.0 mi SE 9.2 mph - N/A   Overcast
7:24 AM 66.0 °F 64.9 °F 96% 30.02 in 10.0 mi SE 11.5 mph - N/A   Scattered Clouds
7:41 AM 66.0 °F 64.9 °F 96% 30.03 in 10.0 mi SE 12.7 mph - N/A   Mostly Cloudy
7:53 AM 66.0 °F 64.9 °F 96% 30.02 in 10.0 mi SSE 16.1 mph - N/A   Overcast
8:53 AM 66.9 °F 64.0 °F 90% 30.01 in 10.0 mi SSE 11.5 mph - N/A   Overcast
9:21 AM 66.9 °F 64.9 °F 93% 30.03 in 10.0 mi SSE 8.1 mph - N/A   Overcast
9:53 AM 68.0 °F 64.4 °F 88% 30.03 in 10.0 mi South 9.2 mph - N/A   Overcast
10:53 AM 70.0 °F 66.0 °F 87% 30.01 in 10.0 mi South 9.2 mph - N/A   Mostly Cloudy
11:23 AM 70.0 °F 64.9 °F 84% 30.01 in 10.0 mi South 10.4 mph - N/A   Overcast
11:35 AM 70.0 °F 64.9 °F 84% 30.00 in 10.0 mi South 9.2 mph - N/A   Overcast
11:53 AM 71.1 °F 64.0 °F 78% 30.00 in 10.0 mi South 9.2 mph - N/A   Overcast
12:53 PM 72.0 °F 64.9 °F 78% 29.99 in 10.0 mi South 9.2 mph - N/A   Overcast
1:38 PM 73.0 °F 64.9 °F 76% 29.98 in 10.0 mi South 9.2 mph - N/A   Overcast
1:46 PM 75.0 °F 66.0 °F 73% 29.98 in 10.0 mi South 10.4 mph - N/A   Overcast
1:53 PM 75.0 °F 64.9 °F 71% 29.97 in 10.0 mi South 13.8 mph - N/A   Overcast
2:11 PM 73.9 °F 64.9 °F 73% 29.97 in 10.0 mi SSE 11.5 mph - N/A   Mostly Cloudy
2:53 PM 73.9 °F 66.0 °F 76% 29.94 in 10.0 mi South 11.5 mph - N/A   Mostly Cloudy
3:53 PM 73.9 °F 66.0 °F 76% 29.93 in 10.0 mi South 12.7 mph - N/A   Mostly Cloudy
4:53 PM 75.0 °F 64.9 °F 71% 29.92 in 10.0 mi South 13.8 mph - N/A   Mostly Cloudy
5:53 PM 73.0 °F 64.9 °F 76% 29.91 in 10.0 mi South 11.5 mph - N/A   Mostly Cloudy
6:53 PM 72.0 °F 64.0 °F 76% 29.90 in 10.0 mi South 5.8 mph - N/A   Overcast
7:49 PM 66.2 °F 64.4 °F 94% 29.91 in 7.0 mi North 6.9 mph - 0.01 in Rain Light Rain
7:53 PM 66.9 °F 64.9 °F 93% 29.90 in 7.0 mi NNE 9.2 mph - 0.02 in Rain Light Rain
8:07 PM 66.0 °F 64.0 °F 93% 29.90 in 4.0 mi North 10.4 mph - 0.02 in Rain Light Rain
8:15 PM 64.9 °F 64.0 °F 97% 29.89 in 5.0 mi North 12.7 mph - 0.04 in Rain Light Rain
8:27 PM 64.9 °F 64.0 °F 97% 29.89 in 3.0 mi Variable 3.5 mph - 0.11 in Rain Heavy Rain
8:53 PM 64.9 °F 63.0 °F 93% 29.88 in 7.0 mi North 9.2 mph - 0.18 in Rain Rain
9:03 PM 64.9 °F 64.0 °F 97% 29.88 in 6.0 mi NNE 8.1 mph - 0.02 in Rain Rain
9:23 PM 64.4 °F 64.4 °F 100% 29.86 in 6.0 mi NNE 5.8 mph - N/A Rain Light Rain
9:37 PM 64.0 °F 63.0 °F 96% 29.86 in 2.5 mi ENE 5.8 mph - 0.18 in Rain Heavy Rain
9:49 PM 64.4 °F 62.6 °F 94% 29.87 in 1.2 mi ESE 6.9 mph - 0.40 in Rain Heavy Rain
9:53 PM 64.0 °F 63.0 °F 96% 29.86 in 1.5 mi ESE 9.2 mph - 0.47 in Rain Heavy Rain
10:11 PM 64.0 °F 64.0 °F 100% 29.86 in 1.8 mi East 5.8 mph - 0.31 in Rain Heavy Rain
10:19 PM 64.0 °F 64.0 °F 100% 29.86 in 2.5 mi NE 8.1 mph - 0.36 in Rain Heavy Rain
10:23 PM 64.0 °F 64.0 °F 100% 29.86 in 3.0 mi ENE 5.8 mph - 0.37 in Rain Rain
10:30 PM 64.0 °F 64.0 °F 100% 29.86 in 4.0 mi ENE 5.8 mph - 0.38 in Rain Light Rain
10:46 PM 64.9 °F 64.0 °F 97% 29.86 in 5.0 mi Calm Calm - 0.42 in Rain Light Rain
10:53 PM 64.9 °F 64.0 °F 97% 29.86 in 8.0 mi Calm Calm - 0.42 in Rain Light Rain
10:59 PM 64.9 °F 64.0 °F 97% 29.86 in 6.0 mi SSE 6.9 mph - 0.01 in Rain Light Rain
11:13 PM 64.9 °F 64.0 °F 97% 29.86 in 2.0 mi East 6.9 mph - 0.10 in Rain Heavy Rain
11:30 PM 64.9 °F 64.0 °F 97% 29.86 in 6.0 mi East 4.6 mph - 0.13 in Rain Light Rain
11:40 PM 64.9 °F 64.0 °F 97% 29.86 in 10.0 mi East 4.6 mph - 0.13 in Rain Light Rain
11:53 PM 64.9 °F 64.9 °F 100% 29.85 in 10.0 mi East 4.6 mph - 0.14 in Rain Light Rain